SERVIS 2 DEB, 43393

Orbit data source: Space-Track

SERVIS 2 DEB, 43393 is space debris in LEO originally from a launch on Wed, 02 Jun 2010 UTC launched from the Plesetsk Missile And Space Complex (PKMTR). Debris objects in space refer to the collection of defunct objects orbiting the Earth. Examples of debris include non-operational satellites, rocket bodies, and fragments generated from explosions, collisions, or faulty payload assembly.

Loading next visibility...
SERVIS 2 DEB details
Identifier
43393, 2010-023C
Orbit
LEO
Last TLE update19 hours ago
Origin
Flag of CISJ-spacesystems (CIS)
ManufacturerMELCO
MissionSpacecraft
Bus & MotorUnknown
MassUnknown
Launch date (UTC)
2010-06-02 (15 years ago)
Launch vehicleUnknown
Launch site
Plesetsk Missile And Space Complex (PKMTR)
Object type
Payload
Rocket body
Debris
Shape & HBRUnknown
Radar Cross SectionSmall (<0.1 m²)

Expand to show TLE details & history

TLE from 19 hours ago
0 SERVIS 2 DEB
1 43393U 10023C   24339.60826015  .00008960  00000-0  16235-1 0  9998
2 43393 100.7042 287.4670 0015455 294.8977  65.0542 13.41141879535271
Epoch: 2024-12-04T14:35Z
Definitive object data (Epoch: 2024-12-04T14:35:53.676Z)
Latitude-0.00006°
Longitude-5.40761°
Altitude1,102.902 km
Speed7.303 km/s
True Right ascension19h 09m 52s
True Declination0° 00' 00"
Sunlit
Object was in daylight at TLE epoch
Visualization TLE readout
Latitude-61.73003°
Longitude15.91488°
Altitude1,117.036 km
Speed7.299 km/s
Apparent Right ascension20h 13m 00s
Apparent Declination-51° 38' 28"
Sunlit
Object is in daylight
Visualization observer readout
Local Sidereal Time07:56:55
Azimuth192.024° SSW
Elevation-77.949°
Doppler factor1
Orbital elements
Apogee altitude1,113.957 km
Perigee altitude1,090.835 km
Semi-major axis7,480.533 km
Eccentricity0.0015455
Inclination100.7042°
RAAN287.467°
Arg. of periapsis294.8977°
True anomaly65.21491°
Mean anomaly65.0542°
Eccentric anomaly65.13454°
Mean motion3.35463 °/min
BSTAR0.016235
Orbital period107.31 mins
Loading maneuver chart data...
Loading historical data...
Loading historical data...
Loading historical data...
Loading historical data...
Loading historical data...
Loading historical data...
Loading historical data...
Other satellites on launch #23 in the year 2010 (2010-06-02 UTC)

SERVIS 2 DEB Visibility forecast

Observer location: undefined°, undefined

Span
Click to sort rows by Start time (UTC) header in descending order
Start Az.
Max El. time (UTC)
Max El. Az.
Max El.
End time (UTC)
End Az.
10 mins2024-12-05 10:52:37.055Z353.463° N2024-12-05 10:57:37.055Z298.949° NW27.55°2024-12-05 11:02:37.055Z243.174° WSW
9 mins2024-12-05 19:24:37.055Z106.662° ESE2024-12-05 19:28:37.055Z57.207° ENE26.092°2024-12-05 19:33:37.055Z6.169° NNE
11 mins2024-12-05 21:08:37.055Z187.846° SSW2024-12-05 21:13:37.055Z255.569° W37.845°2024-12-05 21:19:37.055Z331.83° NNW
8 mins2024-12-06 08:25:37.055Z56.507° ENE2024-12-06 08:28:37.055Z88.478° E20.781°2024-12-06 08:33:37.055Z140.209° SSE
|